Home > Weather > Nancy > Past weeks

Flag for France Weather for the Past 2 Weeks in Nancy, France

Now
41 °F

Clear.


Feels Like: 31 °F
Forecast: 39 / 49 °F
Wind: 22 mph from Southwest

Location: Nancy / Ochey

Current Time: Feb 8, 2016 at 1:28:21 AM

Latest Report: Feb 8, 2016 at 12:00 AM


Visibility: 10 mi

Pressure: 29.80 "Hg

Humidity: 81%

Dew point: 36 °F

Location of NancyLocation

Historic Weather in Nancy — Graph

°F

Nancy Temperature Yesterday

Maximum temperature yesterday: 54 °F (at 12:00 AM)
Minimum temperature yesterday: 39 °F (at 6:00 PM)
Average temperature yesterday: 46 °F

High & Low Weather Summary for the Past Weeks

 TemperatureHumidityPressure
High57 °F (Jan 25, 12:30 PM)100% (Jan 23, 11:00 PM)30.57 "Hg (Jan 23, 11:00 PM)
Low32 °F (Jan 24, 1:30 AM)41% (Jan 25, 12:30 PM)29.56 "Hg (Feb 7, 4:00 AM)
Average45 °F86%30.20 "Hg
* Reported Jan 23 11:00 PM — Feb 7 11:30 PM, Nancy, Weather by CustomWeather, © 2016

Note: Actual official high and low records may vary slightly from our data, if they occured in-between our weather recording intervals... More about our weather records

Advertising

Nancy Weather History for the Previous 24 Hours

 ConditionsComfort  
Time TempWeatherWind HumidityBarometerVisibility
11:30 PM
Sun, Feb 7
41 °FClear.21 mph81%29.80 "Hg10 mi
11:00 PM41 °FClear.18 mph81%29.80 "Hg10 mi
10:30 PM41 °FClear.21 mph87%29.80 "Hg10 mi
10:00 PM41 °FClear.18 mph87%29.80 "Hg10 mi
9:30 PM43 °FClear.17 mph81%29.80 "Hg10 mi
9:00 PM41 °FPassing clouds.13 mph87%29.80 "HgN/A
8:30 PM41 °FPassing clouds.13 mph87%29.80 "HgN/A
8:00 PM41 °FClear.13 mph81%29.80 "Hg10 mi
7:30 PM41 °FClear.16 mph87%29.80 "Hg10 mi
7:00 PM41 °FClear.14 mph87%29.80 "Hg10 mi
6:30 PM39 °FPassing clouds.12 mph93%29.80 "HgN/A
6:00 PM39 °FPartly cloudy.10 mph93%29.80 "HgN/A
5:30 PM41 °FLight rain. Partly sunny.18 mph81%29.77 "Hg5 mi
5:00 PM45 °FPartly sunny.17 mph76%29.77 "HgN/A
4:30 PM46 °FPartly sunny.16 mph71%29.74 "HgN/A
4:00 PM45 °FScattered clouds.17 mph76%29.74 "HgN/A
3:30 PM46 °FBroken clouds.16 mph71%29.74 "HgN/A
3:00 PM46 °FBroken clouds.14 mph76%29.74 "HgN/A
2:30 PM46 °FBroken clouds.16 mph76%29.74 "HgN/A
2:00 PM46 °FPartly sunny.15 mph82%29.74 "HgN/A
1:30 PM45 °FPartly sunny.13 mph87%29.71 "HgN/A
1:00 PM45 °FBroken clouds.13 mph87%29.71 "HgN/A
12:30 PM45 °FPartly sunny.10 mph87%29.71 "HgN/A
12:00 PM45 °FMostly cloudy.12 mph87%29.71 "HgN/A
11:30 AM45 °FBroken clouds.12 mph87%29.68 "HgN/A
11:00 AM45 °FMostly cloudy.12 mph93%29.65 "HgN/A
10:30 AM45 °FPartly sunny.10 mph93%29.65 "HgN/A
10:00 AM45 °FOvercast.12 mph87%29.62 "HgN/A
9:30 AM43 °FLight rain. More clouds than sun.8 mph93%29.62 "HgN/A
9:00 AM43 °FLight rain. Mostly cloudy.9 mph93%29.62 "HgN/A
8:30 AM45 °FLight rain. More clouds than sun.15 mph87%29.62 "HgN/A
8:00 AM46 °FLight rain. Broken clouds.14 mph87%29.59 "HgN/A
7:30 AM48 °FDrizzle. Mostly cloudy.16 mph87%29.56 "HgN/A
7:00 AM52 °FMostly cloudy.20 mph72%29.56 "HgN/A
6:30 AM52 °FLight rain. Mostly cloudy.23 mph72%29.56 "HgN/A
6:00 AM52 °FLight rain. Clear.28 mph67%29.56 "HgN/A
5:30 AM52 °FLight rain. Overcast.29 mph67%29.56 "HgN/A
5:00 AM54 °FClear.29 mph58%29.56 "Hg10 mi
4:30 AM54 °FClear.28 mph58%29.56 "Hg10 mi
4:00 AM54 °FClear.28 mph58%29.56 "Hg10 mi
3:30 AM54 °FClear.26 mph54%29.59 "Hg10 mi
3:00 AM54 °FClear.26 mph58%29.59 "Hg10 mi
2:30 AM54 °FClear.25 mph58%29.62 "Hg10 mi
2:00 AM54 °FClear.30 mph58%29.62 "Hg10 mi
1:30 AM54 °FClear.31 mph54%29.62 "Hg10 mi
1:00 AM54 °FClear.29 mph54%29.62 "Hg10 mi
Weather by CustomWeather, © 2016

See weather overviewHow to use our weather pages